Location: Vienna
(38.9012°N, 77.2653°W)
Time: 08:56:23
(UTC-04:00)

ISS - Visible Passes

Search period start: 22 July 2018 00:00
Search period end: 01 August 2018 00:00
Orbit: 402 x 408 km, 51.6° (Epoch: 22 July)

Date Brightness Start Highest point End Pass type
(mag) Time Alt. Az. Time Alt. Az. Time Alt. Az.
22 Jul -0.7 02:21:37 10° NNW 02:23:42 16° NNE 02:25:48 10° ENE visible
22 Jul -3.8 03:57:20 10° NW 04:00:38 81° NE 04:03:55 10° SE visible
22 Jul -1.1 22:13:29 10° W 22:16:07 22° NNW 22:18:46 10° NNE visible
23 Jul -0.3 01:29:55 10° N 01:30:55 12° N 01:30:55 12° N visible
23 Jul -2.0 21:20:49 10° W 21:23:51 34° NNW 21:26:53 10° NE visible
23 Jul -0.4 23:00:04 10° NNW 23:01:06 11° NNW 23:02:08 10° N visible
24 Jul -0.6 22:06:49 10° NW 22:08:39 14° NNW 22:10:29 10° NNE visible
25 Jul -0.9 21:13:48 10° WNW 21:16:15 19° NNW 21:18:42 10° NNE visible
26 Jul -0.4 00:29:48 10° NNW 00:30:29 12° N 00:30:29 12° N visible
26 Jul -0.4 22:00:39 10° NNW 22:01:14 10° N 22:01:50 10° N visible
26 Jul -0.6 23:38:14 10° N 23:38:58 11° N 23:39:42 10° NNE visible
27 Jul -0.7 21:07:10 10° NW 21:08:44 13° NNW 21:10:18 10° NNE visible
28 Jul -0.4 00:21:25 10° NNW 00:21:50 12° NNW 00:21:50 12° NNW visible
28 Jul -0.9 23:29:35 10° NNW 23:31:14 14° NNE 23:31:14 14° NNE visible
29 Jul -0.8 22:37:52 10° N 22:38:58 11° NNE 22:40:05 10° NNE visible
30 Jul -0.3 00:13:08 10° NW 00:13:18 11° NW 00:13:18 11° NW visible
30 Jul -1.2 23:21:10 10° NNW 23:22:46 19° N 23:22:46 19° N visible
31 Jul -1.4 22:29:16 10° NNW 22:31:24 16° NNE 22:32:14 15° NE visible
